Flag for Norway Weather past 2 weeks in Sarpsborg, Norway

Now
36 °F

Passing clouds.


Feels Like: 28 °F
Forecast: 34 / 46 °F
Wind: 10 mph from North

Location: Rygge

Current Time: Apr 2, 2015 at 6:41:28 AM

Latest Report: Apr 2, 2015 at 5:50 AM


Visibility: N/A

Pressure: 29.47 "Hg

Humidity: 60%

Dew point: 23 °F

Location of SarpsborgLocation

Historic Weather in Sarpsborg — Graph

°F

Sarpsborg temperature yesterday

Maximum temperature yesterday: 50 °F (at 2:50 PM)
Minimum temperature yesterday: 28 °F (at 7:50 AM)
Average temperature yesterday: 40 °F

Past Weeks' High & Low Weather Summary

 TemperatureHumidityPressure
High52 °F (Mar 24, 1:20 PM)100% (Mar 18, 10:50 AM)30.57 "Hg (Mar 18, 10:50 AM)
Low25 °F (Mar 28, 5:20 AM)28% (Mar 21, 4:50 PM)28.94 "Hg (Mar 30, 2:20 AM)
Average37 °F82%29.76 "Hg
* Reported Mar 18 4:20 AM — Apr 2 5:50 AM, Sarpsborg, Weather by CustomWeather, © 2015

Note: Actual official high and low records may vary slightly from our data, if they occured in-between our weather recording intervals... More about our weather records

Advertising

Sarpsborg weather history for previous 24 hours

 ConditionsComfort  
Time TempWeatherWind HumidityBarometerVisibility
5:50 AM
Thu, Apr 2
36 °FPassing clouds.10 mph60%29.47 "HgN/A
5:20 AM36 °FChilly.10 mph60%29.47 "HgN/A
4:50 AM36 °FChilly.10 mph60%29.47 "HgN/A
4:20 AM37 °FPassing clouds.10 mph56%29.47 "HgN/A
3:50 AM37 °FPassing clouds.10 mph56%29.47 "HgN/A
3:20 AM37 °FPassing clouds.12 mph56%29.45 "HgN/A
2:50 AM39 °FPassing clouds.12 mph52%29.45 "HgN/A
2:20 AM39 °FMostly cloudy.10 mph52%29.45 "HgN/A
1:50 AM39 °FMostly cloudy.10 mph56%29.45 "HgN/A
1:20 AM39 °FPassing clouds.10 mph56%29.45 "HgN/A
12:50 AM39 °FMostly cloudy.12 mph56%29.45 "HgN/A
12:20 AM39 °FPassing clouds.9 mph56%29.45 "HgN/A
11:50 PM
Wed, Apr 1
39 °FPassing clouds.9 mph56%29.42 "HgN/A
11:20 PM39 °FClear.10 mph61%29.42 "Hg10 mi
10:50 PM39 °FPassing clouds.7 mph61%29.42 "HgN/A
10:20 PM39 °FClear.8 mph61%29.42 "Hg10 mi
9:50 PM41 °FClear.9 mph61%29.42 "Hg10 mi
9:20 PM39 °FClear.6 mph65%29.42 "Hg10 mi
8:50 PM39 °FSunny.9 mph65%29.42 "Hg10 mi
8:20 PM39 °FScattered clouds.7 mph65%29.42 "HgN/A
7:50 PM39 °FScattered showers. Broken clouds.9 mph65%29.39 "HgN/A
7:20 PM41 °FScattered showers. Broken clouds.15 mph61%29.39 "HgN/A
6:50 PM45 °FScattered clouds.9 mph49%29.39 "HgN/A
6:20 PM46 °FScattered clouds.6 mph46%29.36 "HgN/A
5:50 PM46 °FScattered clouds.10 mph50%29.36 "HgN/A
5:20 PM45 °FPartly sunny.9 mph49%29.36 "HgN/A
4:50 PM48 °FPassing clouds.9 mph43%29.36 "HgN/A
4:20 PM48 °FScattered showers. Scattered clouds.7 mph40%29.33 "HgN/A
3:50 PM45 °FScattered showers. Passing clouds.7 mph46%29.36 "HgN/A
3:20 PM45 °FSunny.16 mph46%29.33 "Hg10 mi
2:50 PM50 °FPassing clouds.9 mph35%29.33 "HgN/A
2:20 PM48 °FPassing clouds.7 mph34%29.33 "HgN/A
1:50 PM48 °FPassing clouds.6 mph37%29.33 "HgN/A
1:20 PM46 °FPassing clouds.7 mph40%29.30 "HgN/A
12:50 PM46 °FPassing clouds.9 mph40%29.30 "HgN/A
12:20 PM46 °FPassing clouds.9 mph40%29.30 "HgN/A
11:50 AM45 °FPassing clouds.9 mph42%29.30 "HgN/A
11:20 AM43 °FPassing clouds.8 mph46%29.27 "HgN/A
10:50 AM43 °FPassing clouds.8 mph46%29.27 "HgN/A
10:20 AM41 °FSunny.7 mph53%29.27 "Hg10 mi
9:50 AM39 °FSunny.8 mph56%29.27 "Hg10 mi
9:20 AM37 °FPassing clouds.3 mph70%29.24 "HgN/A
8:50 AM37 °FSunny.3 mph65%29.24 "Hg10 mi
8:20 AM32 °FSunny.1 mph80%29.24 "Hg10 mi
7:50 AM28 °FSunny.1 mph86%29.21 "Hg10 mi
6:50 AM34 °FClear.8 mph70%29.21 "Hg10 mi
6:20 AM34 °FClear.7 mph75%29.21 "Hg10 mi
Weather by CustomWeather, © 2015

See weather overviewHow to use our weather pages